Regional Weather Roundup
Issued by NWS

Home | Current Version | Previous Version | Text Only | Print | Product List | Glossary On
Versions: 1 2 3 4 5 6 7 8 9 10 11 12 13 14 15 16 17 18 19 20 21 22 23 24 25 26 27 28 29 30 31 32 33 34 35 36 37 38 39 40 41 42 43 44 45 46 47 48 49 50
596
ASCA44 KEWX 240820
RWRMX

LATIN AMERICA AND CARIBBEAN REGIONAL WEATHER ROUNDUP
NATIONAL WEATHER SERVICE AUSTIN/SAN ANTONIO TX
300 AM CDT TUE MAY 24 2016

NOTE: "FAIR" INDICATED FEW OR NO CLOUDS BELOW 12,000 FEET WITH NO
SIGNIFICANT WEATHER AND/OR OBSTRUCTIONS TO VISIBILITY.

BAJA CALIFORNIA

CITY           SKY/WX    TMP DP  RH WIND       PRES   REMARKS
MEXICALI       CLEAR     66  37  34 N7        29.76S
S.J. DEL CABO    N/A    N/A N/A N/A MISG        N/A
TIJUANA        CLOUDY    59  46  63 E7        29.99

NORTHWESTERN MEXICO

CITY           SKY/WX    TMP DP  RH WIND       PRES   REMARKS
HERMOSILLO     CLEAR     73  27  17 CALM      29.83S

NORTHEASTERN MEXICO

CITY           SKY/WX    TMP DP  RH WIND       PRES   REMARKS
MONCLOVA         N/A    N/A N/A N/A MISG        N/A
MONTERREY      CLOUDY    77  72  83 E7        29.86R
REYNOSA          N/A    N/A N/A N/A MISG        N/A
CD. VICTORIA     N/A    N/A N/A N/A MISG        N/A

WESTERN MEXICO

CITY           SKY/WX    TMP DP  RH WIND       PRES   REMARKS
AGUASCALIENTES   N/A    N/A N/A N/A MISG        N/A
COLIMA           N/A    N/A N/A N/A MISG        N/A
GUADALAJARA    MOCLDY    68  46  45 W3        30.15F
MAZATLAN       PTCLDY    70  66  88 CALM      29.87F
P. VALLARTA    CLEAR     72  70  94 NE2       29.86F
URUAPAN          N/A    N/A N/A N/A MISG        N/A
ZACATECAS      CLEAR     55  28  35 CALM      30.25

CENTRAL MEXICO

CITY           SKY/WX    TMP DP  RH WIND       PRES   REMARKS
CUERNAVACA       N/A    N/A N/A N/A MISG        N/A
MEXICO CITY    PTCLDY    63  54  72 E5        30.30F
MORELIA        PTCLDY    64  55  72 W5        30.20F
POZA RICA        N/A    N/A N/A N/A MISG        N/A
QUERETARO      CLEAR     68  50  52 E5        30.26S
S. LUIS POTOSI CLEAR     64  57  77 CALM      30.18
TOLUCA         PTCLDY    54  50  87 CALM      30.41F

SOUTHERN MEXICO

CITY           SKY/WX    TMP DP  RH WIND       PRES   REMARKS
ACAPULCO       CLOUDY    84  79  84 W3        29.88F HX  96
B. DE HUATULCO   N/A    N/A N/A N/A MISG        N/A
P. ESCONDIDO     N/A    N/A N/A N/A MISG        N/A
VERACRUZ         N/A    N/A N/A N/A MISG        N/A

YUCATAN PENINSULA

CITY           SKY/WX    TMP DP  RH WIND       PRES   REMARKS
CAMPECHE         N/A    N/A N/A N/A MISG        N/A
CANCUN         PTCLDY    81  77  89 SE7       29.93S
CHETUMAL         N/A    N/A N/A N/A MISG        N/A
CD. DEL CARMEN   N/A    N/A N/A N/A MISG        N/A
COZUMEL        CLEAR     75  73  94 SE6       29.92F
MERIDA         CLEAR     82  68  61 E8        29.85F
MINATITLAN       N/A    N/A N/A N/A MISG        N/A
TAPACHULA      CLOUDY    77  75  94 CALM      29.85S

CENTRAL AMERICA

CITY           SKY/WX    TMP DP  RH WIND       PRES   REMARKS

CARIBBEAN

CITY           SKY/WX    TMP DP  RH WIND       PRES   REMARKS
CURACAO        MOCLDY    82  77  83 E17       29.92S HX  91
KINGSTON       MOCLDY    82  73  74 N10       29.92S
NASSAU         MOCLDY    75  66  73 MISG      30.01F
SAN JUAN       PTCLDY    81  75  83 SE5       30.06S
SANTO DOMINGO  MOCLDY    72  72 100 NE5       30.00S THUNDER
ST. CROIX      CLOUDY    82  75  78 E15       30.07
ST. MAARTEN    PTCLDY    81  75  83 E10       30.06S
ST. THOMAS     CLOUDY    82  75  78 E15       30.06

$$





USA.gov is the U.S. government's official web portal to all federal, state and local government web resources and services.